sat.trackr.live / text

‹ back to catalog

STARLINK-32852

NORAD 62824 · 2025-018U

PAYLOAD ACTIVE UNKNOWN

§ Identity

Operator
Country
US
Launch date
2025-01-24
Launch site
AFWTR
Launch vehicle
Mass (kg)
RCS (m²)

Purposes: comms

External: N2YO · Heavens-Above · Gunter

§ Orbital elements

Epoch: 2026-09-21T21:52:50.959488Z

Period
93.85 min
Inclination
53.1591°
Eccentricity
0.0001757
Mean motion
15.34399465 rev/d
Perigee alt
461.5 km
Apogee alt
463.9 km
Semi-major
6,840.8 km
B*
1.8450e-4
RAAN
117.2634°
Arg perigee
143.1945°
Mean anomaly
216.9179°
Rev number
9,323

§ Raw data

STARLINK-328521 62824U 25018U   26264.91170092  .00005862  00000+0  18450-3 0  99982 62824  53.1591 117.2634 0001757 143.1945 216.9179 15.34399465 93230

JSON: /api/v1/satellites/62824 · /tle

For live sub-satellite position, see the globe view (requires WebGL).

§ Visibility from observer

Set your observer location to see the next 7 days of passes ≥ 10°. The values pass through the URL so the page stays shareable.

No JS? Fill the form by hand. The geolocation button needs JavaScript.